Minneapolis, MN

6:58 AM CDT on August 26, 2016 (GMT -0500)
Minneapolis-Saint Paul International

Weather History for KMSP - October, 2013

Change the Weather History Date:

Friday, October 4, 2013

  Actual Average Record
Temperature  
Mean Temperature 57 °F 54 °F  
Max Temperature 59 °F 64 °F 89 °F (1922)
Min Temperature 55 °F 44 °F 24 °F (1935)
Degree Days  
Heating Degree Days 8 12  
Month to date heating degree days 17 44  
Since 1 July heating degree days 83 217  
Cooling Degree Days 0 0  
Month to date cooling degree days 0 3  
Year to date cooling degree days 981 750  
Growing Degree Days 7 (Base 50)    
Moisture  
Dew Point 55 °F    
Average Humidity 90    
Maximum Humidity 100    
Minimum Humidity 80    
Precipitation  
Precipitation 0.29 in 0.10 in 4.61 in (2005)
Month to date precipitation 1.22 0.40  
Year to date precipitation 29.01 25.65  
Snow  
Snow 0.00 in 0.00 in T in (1935)
Month to date snowfall 0.0 0.0  
Since 1 July snowfall T T  
Since 1 September snowfall 0.0 T  
Snow Depth 0.00 in    
Sea Level Pressure  
Sea Level Pressure 29.93 in    
Wind  
Wind Speed 14 mph (NE)    
Max Wind Speed 26 mph    
Max Gust Speed 31 mph    
Visibility 8 miles    
Events Rain , Thunderstorm    
T = Trace of Precipitation, MM = Missing Value Source: NWS Daily Summary

Daily Weather History Graph

Daily Weather History Graph

Search for Another Location

Airport or City:

Trip Planner

Search our weather history database for the weather conditions in past years. The results will help you decide how hot, cold, wet, or windy it might be!

Date:

Astronomy

Oct. 04, 2013 Rise Set
Actual Time 7:14 AM CDT 6:47 PM CDT
Civil Twilight 6:45 AM CDT 7:16 PM CDT
Nautical Twilight 6:11 AM CDT 7:50 PM CDT
Astronomical Twilight 5:37 AM CDT 8:24 PM CDT
Moon 6:51 AM CDT (10/4) 6:28 PM CDT (10/4)
Length of Visible Light 12h 30m
Length of Day
11h 32m
Waning Crescent, 0% of the Moon is Illuminated
Oct 4
Waning Crescent
Oct 4
New
Oct 11
First Quarter
Oct 18
Full
Oct 26
Last Quarter

Hourly Weather History & Observations

Time (CDT) Temp. Dew Point Humidity Pressure Visibility Wind Dir Wind Speed Gust Speed Precip Events Conditions
12:53 AM 55.0 °F 54.0 °F 96% 29.93 in 5.0 mi North 10.4 mph - 0.00 in   Light Drizzle
1:53 AM 55.0 °F 54.0 °F 96% 29.93 in 8.0 mi North 12.7 mph - 0.00 in   Overcast
2:53 AM 55.9 °F 55.0 °F 97% 29.94 in 10.0 mi North 10.4 mph - N/A   Overcast
3:53 AM 55.9 °F 55.0 °F 97% 29.95 in 10.0 mi NNE 10.4 mph - N/A   Overcast
4:53 AM 55.9 °F 55.0 °F 97% 29.95 in 10.0 mi NNE 11.5 mph - N/A   Overcast
5:53 AM 55.9 °F 55.0 °F 97% 29.96 in 10.0 mi NE 11.5 mph - N/A   Overcast
6:53 AM 57.0 °F 55.0 °F 93% 29.96 in 10.0 mi ENE 11.5 mph - N/A   Overcast
7:53 AM 57.0 °F 54.0 °F 89% 29.97 in 10.0 mi NE 12.7 mph - N/A   Overcast
8:53 AM 57.0 °F 54.0 °F 89% 29.97 in 10.0 mi NE 12.7 mph - N/A   Overcast
9:53 AM 55.9 °F 53.1 °F 90% 29.96 in 10.0 mi NE 15.0 mph 24.2 mph N/A   Overcast
10:53 AM 57.0 °F 53.1 °F 87% 29.98 in 10.0 mi NE 9.2 mph 19.6 mph N/A   Overcast
11:53 AM 57.9 °F 54.0 °F 87% 29.98 in 10.0 mi ENE 12.7 mph - N/A   Overcast
12:53 PM 57.9 °F 54.0 °F 87% 29.99 in 10.0 mi ENE 13.8 mph - N/A   Overcast
1:53 PM 57.9 °F 54.0 °F 87% 29.96 in 10.0 mi ENE 12.7 mph - N/A   Overcast
2:53 PM 57.9 °F 54.0 °F 87% 29.93 in 9.0 mi ENE 16.1 mph 24.2 mph N/A   Overcast
3:53 PM 59.0 °F 54.0 °F 83% 29.93 in 10.0 mi ENE 13.8 mph - N/A   Overcast
4:53 PM 59.0 °F 55.0 °F 87% 29.94 in 10.0 mi ENE 18.4 mph - N/A   Overcast
5:53 PM 59.0 °F 55.0 °F 87% 29.92 in 10.0 mi ENE 13.8 mph 24.2 mph N/A   Overcast
6:16 PM 57.2 °F 55.4 °F 94% 29.91 in 10.0 mi ENE 16.1 mph 23.0 mph N/A   Overcast
6:53 PM 57.9 °F 55.0 °F 90% 29.91 in 10.0 mi ENE 15.0 mph 24.2 mph N/A   Overcast
7:53 PM 57.9 °F 55.9 °F 93% 29.94 in 9.0 mi East 17.3 mph 24.2 mph N/A   Overcast
8:53 PM 57.9 °F 55.9 °F 93% 29.90 in 5.0 mi ENE 12.7 mph 21.9 mph N/A   Light Drizzle
9:16 PM 57.2 °F 55.4 °F 94% 29.87 in 5.0 mi ENE 16.1 mph 25.3 mph 0.00 in Rain , Thunderstorm Light Thunderstorms and Rain
9:34 PM 57.2 °F 57.2 °F 100% 29.86 in 7.0 mi ENE 17.3 mph - 0.00 in Rain Light Rain
9:53 PM 57.9 °F 57.0 °F 97% 29.88 in 6.0 mi ENE 15.0 mph 23.0 mph 0.00 in   Overcast
10:41 PM 57.2 °F 57.2 °F 100% 29.85 in 5.0 mi East 19.6 mph 27.6 mph 0.02 in Rain Rain
10:53 PM 57.9 °F 57.0 °F 97% 29.86 in 7.0 mi East 18.4 mph - 0.03 in Rain Light Rain
11:00 PM 57.2 °F 57.2 °F 100% 29.85 in 8.0 mi East 18.4 mph 25.3 mph 0.00 in Rain , Thunderstorm Light Thunderstorms and Rain
11:53 PM 57.9 °F 57.0 °F 97% 29.91 in 3.0 mi ESE 12.7 mph - 0.14 in Rain , Thunderstorm Thunderstorms and Rain